This is the latest recevied weather packets stored in our database for station/object W4OTS. If no packets are shown the sender has not sent any weather packets the latest 10 day(s).
| Time | Temp. | Humidity | Pressure | Rain* | Wind** | Luminosity | Snow |
|---|---|---|---|---|---|---|---|
| 1777542833 | 15° C | 90% | 1011.5 hPa | 0 mm | - | 0 W/m² | - |
| 1777542529 | 15° C | 90% | 1011.3 hPa | 0 mm | - | 0 W/m² | - |
| 1777542225 | 15° C | 94% | 1011.4 hPa | 0 mm | - | 0 W/m² | - |
| 1777541924 | 15° C | 94% | 1011.6 hPa | 0 mm | - | 0 W/m² | - |
| 1777541620 | 15° C | 95% | 1011.3 hPa | 0 mm | - | 0 W/m² | - |
| 1777541317 | 15° C | 95% | 1011.8 hPa | 0 mm | - | 0 W/m² | - |
| 1777541013 | 15° C | 95% | 1011.8 hPa | 0 mm | - | 0 W/m² | - |
| 1777540710 | 15° C | 94% | 1011.6 hPa | 0 mm | - | 0 W/m² | - |
| 1777540407 | 15° C | 94% | 1011.5 hPa | 0 mm | - | 0 W/m² | - |
| 1777540104 | 15° C | 93% | 1011.6 hPa | 0 mm | - | 0 W/m² | - |
| 1777539803 | 15.56° C | 93% | 1011.3 hPa | 0 mm | - | 0 W/m² | - |
| 1777539500 | 15.56° C | 93% | 1011.5 hPa | 0 mm | - | 0 W/m² | - |
| 1777539196 | 15.56° C | 92% | 1011.6 hPa | 0 mm | - | 0 W/m² | - |
| 1777538894 | 15.56° C | 92% | 1011.8 hPa | 0 mm | - | 0 W/m² | - |
| 1777538589 | 15° C | 94% | 1011.5 hPa | 0 mm | - | 0 W/m² | - |
| 1777538284 | 15° C | 95% | 1011.8 hPa | 0 mm | - | 0 W/m² | - |
| 1777537980 | 15.56° C | 94% | 1011.5 hPa | 0 mm | - | 0 W/m² | - |
| 1777537676 | 15.56° C | 94% | 1011.4 hPa | 0 mm | - | 0 W/m² | - |
| 1777537373 | 15.56° C | 94% | 1011.1 hPa | 0 mm | - | 0 W/m² | - |
| 1777537069 | 15.56° C | 93% | 1011.1 hPa | 0 mm | - | 0 W/m² | - |
| 1777536766 | 16.11° C | 92% | 1011.3 hPa | 0 mm | - | 0 W/m² | - |
| 1777536462 | 16.11° C | 90% | 1010.9 hPa | 0 mm | - | 0 W/m² | - |
| 1777536159 | 15.56° C | 92% | 1011 hPa | 0 mm | - | 0 W/m² | - |
| 1777535855 | 15.56° C | 93% | 1010.9 hPa | 0 mm | - | 0 W/m² | - |
| 1777535552 | 15.56° C | 93% | 1011.2 hPa | 0 mm | - | 0 W/m² | - |
* Rain latest hour (hover to see other rain measurements)
** Current wind speed in m/s (hover to see current wind gust speed)